SCP
-0 -0 0 0 0 0 0 0 0 -0 -0 -0 -0 0 0 0 0 0 0 0 0 -0 -0 0 0 0 0 -0 0 -0 0 0 0 1 1 0 0 1 2 2 2 2 2 3
0 0 0 0 0 0 -0 0 0 -0 -0 -0 -0 0 0 0 0 0 0 0 0 0 0 0 0 0 0 -0 0 -0 0 -0 0 1 1 1 1 2 2 2 2 2 2 3
0 0 0 0 -0 -0 0 0 0 0 0 0 0 0 0 0 0 0 -0 0 0 -0 -0 -0 -0 0 0 0 0 0 0 0 0 1 1 1 2 2 2 2 3 3 2 2
0 0 0 0 0 0 0 0 0 0 0 0 0 0 0 0 0 0 -0 -0 -0 -0 -0 -0 -0 -0 0 0 0 0 0 0 0 1 0 1 2 3 3 3 2 3 2 1
0 0 0 -0 0 0 0 0 0 0 0 0 0 0 0 0 0 0 -0 -0 -0 -0 -0 -0 -0 0 0 0 0 0 0 0 0 1 1 1 2 3 3 3 2 1 0 0
0 0 0 0 0 0 0 -0 0 0 0 0 0 -0 0 0 0 -0 -0 0 0 0 0 -0 0 0 0 -0 0 0 0 0 0 1 1 1 2 2 2 1 0 0 0 0
0 0 0 0 0 0 0 0 0 0 0 0 0 0 -0 -0 -0 -0 -0 0 0 0 0 0 0 0 -0 0 0 0 0 0 1 1 1 1 1 1 0 0 0 0 0 0
0 0 0 0 0 0 0 -0 0 0 0 0 -0 -0 -0 -0 0 0 -0 -0 -0 0 -0 0 -0 0 0 -0 0 0 0 0 1 1 1 1 0 0 0 0 0 0 0 0
0 0 0 0 -0 -0 0 -0 -0 0 0 0 -0 -0 0 -0 -0 -0 -0 -0 -0 -0 -0 -0 0 0 0 0 0 0 0 0 0 0 0 0 0 0 0 0 0 0 0 0
0 0 0 0 0 0 0 0 0 0 0 -0 0 -0 -0 -0 -0 -0 -0 -0 -0 -0 -0 -0 -0 -0 -0 0 0 0 0 0 0 0 0 0 0 0 0 0 0 0 0 0
0 0 0 0 0 0 0 0 -0 -0 0 0 -0 -0 -0 -0 -0 -0 -0 -0 -0 -0 -0 -0 -0 -0 0 0 0 0 0 0 0 0 0 0 0 0 0 0 0 0 0 0
0 0 0 0 -0 -0 -0 0 0 0 0 0 0 -0 -0 -0 -0 -0 -0 -0 -0 -0 -0 -0 0 0 0 0 0 0 0 0 0 0 0 0 0 0 0 0 0 0 0 0
0 0 0 0 -0 0 0 -0 -0 -0 0 -0 -0 -0 0 -0 -0 -0 -0 -0 -0 0 -0 0 0 0 0 0 0 0 0 0 0 0 0 0 0 0 0 0 -0 0 0 0
0 0 0 0 0 -0 -0 0 -0 -0 0 -0 -0 -0 -0 -0 -0 -0 -0 -0 -0 -0 -0 0 0 0 0 0 0 0 0 0 0 0 0 0 0 0 0 0 0 0 0 0
-0 0 0 0 -0 -0 -0 -0 -0 -0 0 -0 0 0 -0 -0 0 -0 -0 0 0 0 0 0 -0 -0 -0 -0 0 -0 0 0 0 0 0 0 0 0 0 0 0 0 0 0
0 0 0 0 0 -0 -0 -0 -0 0 0 0 0 0 -0 -0 -0 0 0 0 0 0 0 0 0 0 0 0 0 0 0 0 0 0 0 0 0 0 0 0 0 0 0 0
0 0 0 -0 0 -0 -0 0 0 0 0 0 0 -0 -0 -0 0 0 0 0 0 0 0 0 0 0 0 0 0 0 0 0 0 0 0 0 0 0 0 0 0 0 0 0
0 -0 0 0 -0 -0 -0 -0 -0 0 0 0 -0 0 0 0 0 0 0 0 0 0 0 0 0 0 0 0 0 0 0 0 0 0 0 0 0 0 0 0 0 0 0 0
0 0 0 -0 -0 0 -0 -0 0 0 0 0 0 0 0 0 0 0 0 0 0 0 0 0 0 0 0 0 0 0 0 0 0 0 0 0 0 0 0 0 0 0 0 0
0 0 0 -0 0 -0 -0 -0 0 0 0 0 0 0 0 0 0 0 0 0 0 0 0 0 0 0 0 0 0 0 0 0 0 0 0 0 0 0 0 0 0 0 0 0
0 0 0 0 0 0 0 0 0 0 0 0 0 0 0 0 0 0 0 0 0 0 0 0 0 0 0 0 0 0 0 0 0 0 0 0 0 0 0 0 0 0 0 0
0 0 0 0 0 -0 -0 0 0 0 0 0 0 0 0 0 0 0 0 0 0 0 0 0 0 0 0 0 0 0 0 0 0 0 0 0 0 0 0 0 0 0 0 0
0 0 0 0 0 -0 -0 0 -0 0 0 0 0 0 0 0 0 0 0 0 0 0 0 0 0 0 0 0 0 0 0 0 0 0 0 0 0 0 0 0 0 0 0 0
-0 0 0 0 0 0 -0 0 0 0 0 0 0 0 0 0 0 0 0 0 0 0 0 0 0 0 0 0 0 0 0 0 0 0 0 0 0 0 0 0 0 0 0 -0
0 0 0 0 0 0 0 -0 0 0 0 0 0 0 0 0 0 0 0 0 0 0 0 0 0 0 0 0 0 0 0 0 0 0 0 0 0 0 0 0 0 0 0 -0
0 0 0 0 -0 0 0 0 0 0 0 0 0 0 0 0 0 0 0 0 0 0 0 0 0 0 0 0 0 0 0 0 0 0 0 0 0 0 0 0 0 0 0 -0
0 0 0 0 0 0 0 0 0 0 0 0 0 0 0 0 0 0 0 0 0 0 0 0 0 0 0 0 0 0 0 0 0 0 0 0 0 0 0 0 0 0 0 -0
Wind_Speed_500mb
37 38 34 37 36 37 40 43 38 44 52 47 46 41 42 35 32 40 41 45 51 49 45 49 54 62 61 61 57 68 67 68 61 53 61 68 75 75 69 60 55 53 54 53
27 22 27 39 44 50 50 48 48 53 57 57 57 48 30 33 33 41 51 60 57 50 53 56 62 70 70 70 63 64 67 66 54 40 52 67 73 72 66 59 55 56 55 57
23 13 15 25 50 50 44 38 33 35 36 30 26 27 31 32 44 55 63 65 60 65 65 68 74 83 70 72 62 69 62 55 44 40 50 60 67 66 63 60 59 57 57 56
10 11 15 10 6 12 16 29 32 35 37 33 31 33 42 50 57 61 64 70 72 72 78 81 76 66 68 63 63 60 57 48 42 45 49 58 64 66 63 56 57 60 56 55
8 12 26 33 6 3 8 21 16 23 16 27 52 63 54 42 51 60 76 86 81 74 74 76 69 71 68 61 55 59 53 51 41 47 54 65 67 63 58 61 59 60 58 64
5 9 8 5 5 6 1 22 5 17 29 47 53 28 29 65 70 80 81 69 70 73 70 67 60 56 56 54 60 57 55 49 37 48 59 61 59 58 64 64 66 67 68 62
20 12 14 5 6 4 10 8 28 48 56 34 25 49 82 84 76 77 72 71 68 65 65 62 56 48 51 52 66 56 46 44 35 50 51 51 53 66 68 69 73 72 65 58
6 10 14 9 6 10 25 55 57 53 50 59 72 83 87 71 81 73 73 68 68 61 61 53 48 45 50 52 54 49 48 36 42 53 58 50 57 69 73 81 73 66 63 59
10 10 15 23 33 50 50 54 58 48 55 63 82 77 67 82 69 74 71 66 63 59 53 54 43 44 50 49 47 46 37 31 59 59 55 54 68 80 80 79 73 70 63 54
12 13 25 38 57 56 54 62 64 54 60 74 76 69 76 70 70 71 68 66 65 60 51 54 44 45 47 36 39 34 29 55 58 60 60 76 86 83 86 76 73 65 57 50
23 34 34 33 45 52 58 57 63 60 71 70 68 63 67 69 70 69 66 69 69 65 57 53 48 45 37 38 35 35 64 64 65 69 82 86 84 72 66 62 51 50 46 41
8 38 41 44 62 68 57 71 73 68 65 56 55 60 63 66 67 68 74 76 70 59 53 48 48 38 21 31 31 43 67 72 84 83 87 85 83 77 62 46 37 31 31 33
35 48 56 69 58 60 78 77 59 57 57 65 60 55 55 63 62 72 71 65 61 62 58 42 32 31 36 34 49 56 59 73 66 74 66 76 75 67 63 55 49 44 36 32
32 41 47 51 64 83 72 56 55 50 51 48 54 52 51 56 66 67 60 54 57 47 53 46 40 30 38 54 58 65 71 74 77 62 65 69 66 61 60 60 56 46 37 35
37 40 50 56 78 72 61 54 50 46 42 45 47 46 48 57 60 58 52 46 32 17 57 54 63 62 60 72 78 78 74 67 54 59 63 59 59 61 63 59 53 46 46 41
48 43 41 56 70 61 57 47 48 48 45 50 49 51 49 46 45 45 35 28 29 46 56 59 51 54 52 53 64 73 68 66 62 58 58 55 58 61 61 55 51 45 42 39
51 52 52 66 65 62 56 51 47 48 44 44 48 47 46 42 38 27 18 18 35 49 55 55 53 49 60 61 63 63 65 61 60 54 49 53 57 59 59 57 50 43 42 37
44 40 49 57 64 66 67 56 50 51 51 51 46 40 37 37 35 30 26 33 35 45 52 52 54 47 53 57 57 59 60 59 55 52 50 52 51 50 56 54 54 50 45 44
55 39 52 63 65 59 61 64 54 45 45 44 43 42 37 30 26 29 25 33 38 50 53 52 52 52 58 58 58 58 55 52 50 50 48 48 48 49 55 66 60 58 54 57
59 40 56 67 61 55 56 56 51 53 46 45 40 37 36 32 25 27 37 38 38 42 48 52 50 49 52 55 51 52 49 52 50 49 51 54 56 56 73 69 65 63 61 56
55 38 47 54 46 49 59 55 56 52 49 46 41 37 31 25 26 24 35 37 33 40 47 47 45 47 48 45 46 46 48 50 48 56 59 60 60 68 69 71 70 68 66 53
49 41 48 62 62 67 74 68 61 56 55 54 46 40 36 30 30 36 40 40 34 35 45 46 46 47 49 45 45 46 48 51 56 58 59 63 63 62 65 63 61 59 54 49
43 36 43 57 59 64 70 75 65 59 58 55 54 46 42 39 39 43 46 39 36 37 43 46 44 42 44 44 45 50 55 55 55 58 60 59 60 60 59 59 56 54 50 44
45 38 41 46 60 68 78 83 89 71 59 57 53 49 41 43 42 41 40 39 37 38 46 44 36 34 40 46 55 54 54 55 52 52 53 55 55 58 59 57 55 50 48 43
42 39 45 51 61 64 69 75 79 88 80 67 58 51 44 40 44 40 44 45 42 40 45 39 36 36 38 43 50 54 57 53 51 50 52 54 59 63 61 57 55 51 45 41
42 42 39 43 46 54 60 68 78 84 83 79 62 53 47 40 38 44 46 51 51 45 50 48 46 42 43 45 48 48 50 50 49 51 51 55 62 64 62 59 56 51 46 47
42 39 41 42 45 44 46 57 62 68 69 69 65 58 51 42 40 42 45 51 53 51 49 50 48 47 46 44 44 43 44 46 46 50 53 58 61 61 60 60 61 61 64 65
Wind_Direction_500mb
257 264 264 263 269 260 249 250 249 266 266 275 278 291 297 296 294 300 300 302 310 306 295 300 307 310 301 298 300 298 294 293 281 265 250 240 231 222 218 219 222 220 212 206
262 260 255 265 265 262 258 260 259 260 265 269 279 282 279 295 301 297 303 302 300 296 292 294 301 307 302 297 296 298 292 289 278 273 250 232 220 216 212 215 210 201 200 202
275 287 281 267 251 252 254 250 249 257 267 286 291 289 288 289 295 296 303 304 297 298 291 295 297 300 296 292 294 297 298 289 269 259 237 213 208 207 202 195 193 195 193 193
284 289 251 268 293 260 259 255 254 263 280 303 306 299 295 294 295 299 303 300 296 295 293 293 297 292 295 288 288 293 297 290 275 241 214 198 187 184 182 185 188 187 187 188
240 220 294 286 270 285 243 285 304 285 313 316 311 305 292 295 301 299 301 296 293 292 290 292 292 295 294 286 285 289 294 282 283 220 198 183 177 176 178 178 179 181 184 177
246 274 269 357 94 118 313 270 131 330 312 317 313 294 296 307 302 295 297 291 290 293 291 289 287 288 292 281 279 281 285 284 275 215 197 182 177 176 174 177 174 173 171 171
244 260 274 334 147 176 256 350 323 312 310 297 283 289 301 302 299 297 294 293 291 291 289 289 289 286 279 278 273 283 278 272 249 210 198 193 181 178 174 171 166 162 162 168
228 245 264 145 214 279 318 304 299 302 296 296 296 300 300 293 297 294 295 293 294 289 287 285 284 282 275 269 277 282 273 259 224 204 198 193 191 177 170 160 158 161 167 167
224 248 290 277 280 292 291 289 298 296 295 299 305 298 293 295 295 298 294 292 291 288 285 288 282 276 277 279 276 277 254 234 198 198 198 189 181 166 158 159 162 166 166 167
291 271 273 298 299 298 300 299 301 291 296 305 300 290 292 296 297 296 296 295 296 292 284 281 275 270 272 264 267 242 251 187 184 181 179 167 161 160 159 162 163 164 166 167
270 286 310 289 302 305 307 305 303 293 302 301 294 293 294 293 294 294 296 298 299 296 293 282 274 269 255 258 226 212 167 162 166 163 159 152 150 155 159 161 167 166 168 171
276 288 284 287 309 308 312 314 307 302 305 302 298 293 295 294 297 299 301 307 307 305 292 273 265 257 241 201 207 155 151 149 152 151 149 151 153 153 156 153 150 154 157 168
288 291 288 297 317 323 315 314 309 306 303 304 304 300 300 300 301 302 306 308 306 299 289 275 253 250 210 211 172 158 154 152 149 149 150 152 155 154 142 133 133 131 134 143
340 325 322 328 327 317 316 314 312 311 309 304 306 308 305 303 307 311 313 313 298 278 264 241 238 228 179 154 146 161 160 152 156 157 156 157 154 150 146 140 138 134 129 137
322 334 323 324 320 319 320 319 321 310 311 317 318 311 312 317 320 317 321 327 312 28 104 140 157 155 148 148 144 137 151 152 149 155 158 156 155 153 151 150 149 143 136 138
325 328 326 321 321 329 332 334 329 328 328 328 321 325 326 324 319 325 338 358 75 113 111 120 134 145 152 153 150 150 157 162 159 156 154 157 157 158 157 153 151 149 143 141
334 332 334 335 335 336 338 335 333 330 326 327 335 332 333 337 332 353 355 39 78 107 131 141 135 143 148 149 148 151 158 162 164 155 153 155 160 161 161 158 154 147 140 143
337 327 338 340 340 340 340 343 349 349 346 344 342 338 347 353 350 13 9 59 90 110 117 118 122 131 141 144 144 147 151 154 159 159 157 158 159 158 160 157 150 145 135 135
347 342 350 351 351 347 349 355 357 355 354 358 357 351 352 1 9 44 48 86 104 110 109 116 122 133 141 145 147 146 150 154 159 159 159 155 152 156 161 151 149 143 139 139
354 359 0 356 357 354 351 359 5 10 7 8 9 8 4 16 32 49 72 81 96 103 115 123 132 139 144 144 144 147 148 151 151 147 147 148 150 152 148 154 150 143 144 148
351 359 6 359 357 10 11 11 20 14 17 24 28 31 29 32 50 65 87 90 93 114 125 132 132 139 140 144 142 143 146 145 143 142 143 145 147 148 150 152 156 155 156 155
352 360 7 11 13 23 20 24 23 24 25 27 34 45 55 61 77 76 83 87 95 117 131 137 141 145 145 149 147 142 142 146 146 146 147 147 149 153 155 158 158 160 160 157
358 0 9 16 15 19 26 30 28 29 29 32 37 40 50 53 65 79 86 86 98 115 129 136 141 143 146 153 149 148 148 150 148 150 154 157 156 157 158 161 160 162 161 157
6 15 11 23 26 26 27 27 29 32 35 38 40 42 44 52 65 76 86 96 101 112 116 122 132 143 153 156 155 153 151 153 154 157 156 154 153 156 159 162 163 162 161 163
16 24 22 24 29 32 24 23 25 28 34 38 39 42 47 55 69 80 93 97 98 105 110 118 128 135 139 147 153 153 157 157 157 155 154 154 154 158 160 163 164 164 165 166
19 30 33 23 27 27 24 22 24 23 24 31 37 39 44 51 65 79 87 93 98 103 106 111 117 125 131 138 147 153 158 159 160 159 158 158 160 162 162 161 160 160 161 158
26 25 33 38 29 24 22 19 21 19 17 21 30 38 48 57 67 75 82 87 90 94 100 105 109 113 121 129 135 141 147 152 157 159 158 159 161 161 161 162 161 158 151 147
Wind_Speed_850mb
37 38 34 37 36 37 40 43 38 44 52 47 46 41 42 35 32 40 41 45 51 49 45 49 54 62 61 61 57 68 67 68 61 53 61 68 75 75 69 60 55 53 54 53
27 22 27 39 44 50 50 48 48 53 57 57 57 48 30 33 33 41 51 60 57 50 53 56 62 70 70 70 63 64 67 66 54 40 52 67 73 72 66 59 55 56 55 57
23 13 15 25 50 50 44 38 33 35 36 30 26 27 31 32 44 55 63 65 60 65 65 68 74 83 70 72 62 69 62 55 44 40 50 60 67 66 63 60 59 57 57 56
10 11 15 10 6 12 16 29 32 35 37 33 31 33 42 50 57 61 64 70 72 72 78 81 76 66 68 63 63 60 57 48 42 45 49 58 64 66 63 56 57 60 56 55
8 12 26 33 6 3 8 21 16 23 16 27 52 63 54 42 51 60 76 86 81 74 74 76 69 71 68 61 55 59 53 51 41 47 54 65 67 63 58 61 59 60 58 64
5 9 8 5 5 6 1 22 5 17 29 47 53 28 29 65 70 80 81 69 70 73 70 67 60 56 56 54 60 57 55 49 37 48 59 61 59 58 64 64 66 67 68 62
20 12 14 5 6 4 10 8 28 48 56 34 25 49 82 84 76 77 72 71 68 65 65 62 56 48 51 52 66 56 46 44 35 50 51 51 53 66 68 69 73 72 65 58
6 10 14 9 6 10 25 55 57 53 50 59 72 83 87 71 81 73 73 68 68 61 61 53 48 45 50 52 54 49 48 36 42 53 58 50 57 69 73 81 73 66 63 59
10 10 15 23 33 50 50 54 58 48 55 63 82 77 67 82 69 74 71 66 63 59 53 54 43 44 50 49 47 46 37 31 59 59 55 54 68 80 80 79 73 70 63 54
12 13 25 38 57 56 54 62 64 54 60 74 76 69 76 70 70 71 68 66 65 60 51 54 44 45 47 36 39 34 29 55 58 60 60 76 86 83 86 76 73 65 57 50
23 34 34 33 45 52 58 57 63 60 71 70 68 63 67 69 70 69 66 69 69 65 57 53 48 45 37 38 35 35 64 64 65 69 82 86 84 72 66 62 51 50 46 41
8 38 41 44 62 68 57 71 73 68 65 56 55 60 63 66 67 68 74 76 70 59 53 48 48 38 21 31 31 43 67 72 84 83 87 85 83 77 62 46 37 31 31 33
35 48 56 69 58 60 78 77 59 57 57 65 60 55 55 63 62 72 71 65 61 62 58 42 32 31 36 34 49 56 59 73 66 74 66 76 75 67 63 55 49 44 36 32
32 41 47 51 64 83 72 56 55 50 51 48 54 52 51 56 66 67 60 54 57 47 53 46 40 30 38 54 58 65 71 74 77 62 65 69 66 61 60 60 56 46 37 35
37 40 50 56 78 72 61 54 50 46 42 45 47 46 48 57 60 58 52 46 32 17 57 54 63 62 60 72 78 78 74 67 54 59 63 59 59 61 63 59 53 46 46 41
48 43 41 56 70 61 57 47 48 48 45 50 49 51 49 46 45 45 35 28 29 46 56 59 51 54 52 53 64 73 68 66 62 58 58 55 58 61 61 55 51 45 42 39
51 52 52 66 65 62 56 51 47 48 44 44 48 47 46 42 38 27 18 18 35 49 55 55 53 49 60 61 63 63 65 61 60 54 49 53 57 59 59 57 50 43 42 37
44 40 49 57 64 66 67 56 50 51 51 51 46 40 37 37 35 30 26 33 35 45 52 52 54 47 53 57 57 59 60 59 55 52 50 52 51 50 56 54 54 50 45 44
55 39 52 63 65 59 61 64 54 45 45 44 43 42 37 30 26 29 25 33 38 50 53 52 52 52 58 58 58 58 55 52 50 50 48 48 48 49 55 66 60 58 54 57
59 40 56 67 61 55 56 56 51 53 46 45 40 37 36 32 25 27 37 38 38 42 48 52 50 49 52 55 51 52 49 52 50 49 51 54 56 56 73 69 65 63 61 56
55 38 47 54 46 49 59 55 56 52 49 46 41 37 31 25 26 24 35 37 33 40 47 47 45 47 48 45 46 46 48 50 48 56 59 60 60 68 69 71 70 68 66 53
49 41 48 62 62 67 74 68 61 56 55 54 46 40 36 30 30 36 40 40 34 35 45 46 46 47 49 45 45 46 48 51 56 58 59 63 63 62 65 63 61 59 54 49
43 36 43 57 59 64 70 75 65 59 58 55 54 46 42 39 39 43 46 39 36 37 43 46 44 42 44 44 45 50 55 55 55 58 60 59 60 60 59 59 56 54 50 44
45 38 41 46 60 68 78 83 89 71 59 57 53 49 41 43 42 41 40 39 37 38 46 44 36 34 40 46 55 54 54 55 52 52 53 55 55 58 59 57 55 50 48 43
42 39 45 51 61 64 69 75 79 88 80 67 58 51 44 40 44 40 44 45 42 40 45 39 36 36 38 43 50 54 57 53 51 50 52 54 59 63 61 57 55 51 45 41
42 42 39 43 46 54 60 68 78 84 83 79 62 53 47 40 38 44 46 51 51 45 50 48 46 42 43 45 48 48 50 50 49 51 51 55 62 64 62 59 56 51 46 47
42 39 41 42 45 44 46 57 62 68 69 69 65 58 51 42 40 42 45 51 53 51 49 50 48 47 46 44 44 43 44 46 46 50 53 58 61 61 60 60 61 61 64 65
Wind_Direction_850mb
257 264 264 263 269 260 249 250 249 266 266 275 278 291 297 296 294 300 300 302 310 306 295 300 307 310 301 298 300 298 294 293 281 265 250 240 231 222 218 219 222 220 212 206
262 260 255 265 265 262 258 260 259 260 265 269 279 282 279 295 301 297 303 302 300 296 292 294 301 307 302 297 296 298 292 289 278 273 250 232 220 216 212 215 210 201 200 202
275 287 281 267 251 252 254 250 249 257 267 286 291 289 288 289 295 296 303 304 297 298 291 295 297 300 296 292 294 297 298 289 269 259 237 213 208 207 202 195 193 195 193 193
284 289 251 268 293 260 259 255 254 263 280 303 306 299 295 294 295 299 303 300 296 295 293 293 297 292 295 288 288 293 297 290 275 241 214 198 187 184 182 185 188 187 187 188
240 220 294 286 270 285 243 285 304 285 313 316 311 305 292 295 301 299 301 296 293 292 290 292 292 295 294 286 285 289 294 282 283 220 198 183 177 176 178 178 179 181 184 177
246 274 269 357 94 118 313 270 131 330 312 317 313 294 296 307 302 295 297 291 290 293 291 289 287 288 292 281 279 281 285 284 275 215 197 182 177 176 174 177 174 173 171 171
244 260 274 334 147 176 256 350 323 312 310 297 283 289 301 302 299 297 294 293 291 291 289 289 289 286 279 278 273 283 278 272 249 210 198 193 181 178 174 171 166 162 162 168
228 245 264 145 214 279 318 304 299 302 296 296 296 300 300 293 297 294 295 293 294 289 287 285 284 282 275 269 277 282 273 259 224 204 198 193 191 177 170 160 158 161 167 167
224 248 290 277 280 292 291 289 298 296 295 299 305 298 293 295 295 298 294 292 291 288 285 288 282 276 277 279 276 277 254 234 198 198 198 189 181 166 158 159 162 166 166 167
291 271 273 298 299 298 300 299 301 291 296 305 300 290 292 296 297 296 296 295 296 292 284 281 275 270 272 264 267 242 251 187 184 181 179 167 161 160 159 162 163 164 166 167
270 286 310 289 302 305 307 305 303 293 302 301 294 293 294 293 294 294 296 298 299 296 293 282 274 269 255 258 226 212 167 162 166 163 159 152 150 155 159 161 167 166 168 171
276 288 284 287 309 308 312 314 307 302 305 302 298 293 295 294 297 299 301 307 307 305 292 273 265 257 241 201 207 155 151 149 152 151 149 151 153 153 156 153 150 154 157 168
288 291 288 297 317 323 315 314 309 306 303 304 304 300 300 300 301 302 306 308 306 299 289 275 253 250 210 211 172 158 154 152 149 149 150 152 155 154 142 133 133 131 134 143
340 325 322 328 327 317 316 314 312 311 309 304 306 308 305 303 307 311 313 313 298 278 264 241 238 228 179 154 146 161 160 152 156 157 156 157 154 150 146 140 138 134 129 137
322 334 323 324 320 319 320 319 321 310 311 317 318 311 312 317 320 317 321 327 312 28 104 140 157 155 148 148 144 137 151 152 149 155 158 156 155 153 151 150 149 143 136 138
325 328 326 321 321 329 332 334 329 328 328 328 321 325 326 324 319 325 338 358 75 113 111 120 134 145 152 153 150 150 157 162 159 156 154 157 157 158 157 153 151 149 143 141
334 332 334 335 335 336 338 335 333 330 326 327 335 332 333 337 332 353 355 39 78 107 131 141 135 143 148 149 148 151 158 162 164 155 153 155 160 161 161 158 154 147 140 143
337 327 338 340 340 340 340 343 349 349 346 344 342 338 347 353 350 13 9 59 90 110 117 118 122 131 141 144 144 147 151 154 159 159 157 158 159 158 160 157 150 145 135 135
347 342 350 351 351 347 349 355 357 355 354 358 357 351 352 1 9 44 48 86 104 110 109 116 122 133 141 145 147 146 150 154 159 159 159 155 152 156 161 151 149 143 139 139
354 359 0 356 357 354 351 359 5 10 7 8 9 8 4 16 32 49 72 81 96 103 115 123 132 139 144 144 144 147 148 151 151 147 147 148 150 152 148 154 150 143 144 148
351 359 6 359 357 10 11 11 20 14 17 24 28 31 29 32 50 65 87 90 93 114 125 132 132 139 140 144 142 143 146 145 143 142 143 145 147 148 150 152 156 155 156 155
352 360 7 11 13 23 20 24 23 24 25 27 34 45 55 61 77 76 83 87 95 117 131 137 141 145 145 149 147 142 142 146 146 146 147 147 149 153 155 158 158 160 160 157
358 0 9 16 15 19 26 30 28 29 29 32 37 40 50 53 65 79 86 86 98 115 129 136 141 143 146 153 149 148 148 150 148 150 154 157 156 157 158 161 160 162 161 157
6 15 11 23 26 26 27 27 29 32 35 38 40 42 44 52 65 76 86 96 101 112 116 122 132 143 153 156 155 153 151 153 154 157 156 154 153 156 159 162 163 162 161 163
16 24 22 24 29 32 24 23 25 28 34 38 39 42 47 55 69 80 93 97 98 105 110 118 128 135 139 147 153 153 157 157 157 155 154 154 154 158 160 163 164 164 165 166
19 30 33 23 27 27 24 22 24 23 24 31 37 39 44 51 65 79 87 93 98 103 106 111 117 125 131 138 147 153 158 159 160 159 158 158 160 162 162 161 160 160 161 158
26 25 33 38 29 24 22 19 21 19 17 21 30 38 48 57 67 75 82 87 90 94 100 105 109 113 121 129 135 141 147 152 157 159 158 159 161 161 161 162 161 158 151 147